EW1268 Weather Reports


Display with metric or nautical units.
time (UTC)temp
F
wind
direction
speed
MPH
gust
MPH
rain 1hr
in
rain 24hr
in
rain mn
in
humidity
%
barometer
mb
20260506232008 86 183 1.0 4.0 0.00 0.00 0.00 81 1008.3
20260506231525 86 51 0.0 4.0 0.00 0.00 0.00 80 1008.2
20260506231014 86 236 0.0 4.0 0.00 0.00 0.00 80 1008.0
20260506230509 86 168 1.0 4.0 0.00 0.00 0.00 80 1008.1
20260506230031 87 51 0.0 5.0 0.00 0.00 0.00 80 1008.1
20260506225506 87 153 1.0 5.0 0.00 0.00 0.00 80 1008.1
20260506225006 87 294 1.0 6.0 0.00 0.00 0.00 80 1008.1
20260506224517 87 157 2.0 6.0 0.00 0.00 0.00 79 1008.1
20260506224007 88 61 1.0 6.0 0.00 0.00 0.00 77 1008.1
20260506223509 88 309 2.0 6.0 0.00 0.00 0.00 77 1008.1
20260506223026 89 184 1.0 6.0 0.00 0.00 0.00 77 1008.1
20260506222509 89 194 3.0 6.0 0.00 0.00 0.00 77 1008.1
20260506222015 89 165 2.0 6.0 0.00 0.00 0.00 77 1008.1
20260506221528 89 255 2.0 5.0 0.00 0.00 0.00 77 1008.0
20260506221015 89 186 1.0 5.0 0.00 0.00 0.00 78 1008.0
20260506220510 89 273 2.0 6.0 0.00 0.00 0.00 77 1008.0
20260506220032 90 196 2.0 7.0 0.00 0.00 0.00 78 1007.8
20260506215510 90 267 2.0 7.0 0.00 0.00 0.00 79 1007.8
20260506215010 89 217 3.0 9.0 0.00 0.00 0.00 80 1007.8
20260506214515 88 273 1.0 9.0 0.00 0.00 0.00 81 1008.0
20260506214002 88 166 2.0 9.0 0.00 0.00 0.00 79 1008.0
20260506213506 88 146 2.0 7.0 0.00 0.00 0.00 79 1008.1
20260506213016 87 250 1.0 7.0 0.00 0.00 0.00 80 1008.1
20260506212506 88 259 2.0 9.0 0.00 0.00 0.00 80 1007.9
20260506212010 88 325 4.0 9.0 0.00 0.00 0.00 80 1008.0
20260506211524 88 237 2.0 10.0 0.00 0.00 0.00 80 1008.0
20260506211010 88 186 3.0 10.0 0.00 0.00 0.00 81 1008.1
20260506210507 88 236 2.0 11.0 0.00 0.00 0.00 81 1008.2
20260506210013 88 193 2.0 12.0 0.00 0.00 0.00 80 1008.2
20260506205508 88 173 4.0 12.0 0.00 0.00 0.00 78 1008.3
20260506205006 88 178 5.0 11.0 0.00 0.00 0.00 79 1008.4
20260506204521 88 182 6.0 11.0 0.00 0.00 0.00 80 1008.4
20260506204010 88 165 2.0 8.0 0.00 0.00 0.00 81 1008.4
20260506203517 87 229 2.0 8.0 0.00 0.00 0.00 81 1008.5
20260506203027 87 227 2.0 12.0 0.00 0.00 0.00 81 1008.5
20260506202503 87 159 3.0 12.0 0.00 0.00 0.00 82 1008.6
20260506202007 87 159 5.0 11.0 0.00 0.00 0.00 82 1008.6
20260506201512 86 213 5.0 11.0 0.00 0.00 0.00 82 1008.7
20260506201006 86 167 2.0 12.0 0.00 0.00 0.00 83 1008.7
20260506200509 86 194 4.0 12.0 0.00 0.00 0.00 81 1008.7
20260506200021 87 184 3.0 11.0 0.00 0.00 0.00 80 1008.7
20260506195510 87 157 5.0 10.0 0.00 0.00 0.00 79 1008.7
20260506195010 88 186 4.0 9.0 0.00 0.00 0.00 78 1008.8
20260506194544 88 205 4.0 12.0 0.00 0.00 0.00 79 1008.7
20260506194006 88 137 3.0 12.0 0.00 0.00 0.00 79 1008.8
20260506193505 88 193 4.0 11.0 0.00 0.00 0.00 80 1008.8
20260506193015 88 171 4.0 10.0 0.00 0.00 0.00 80 1008.9
20260506192507 88 142 4.0 10.0 0.00 0.00 0.00 79 1008.9
20260506192013 88 173 2.0 8.0 0.00 0.00 0.00 82 1008.9
20260506191522 87 202 3.0 12.0 0.00 0.00 0.00 83 1009.1
20260506191008 87 171 4.0 12.0 0.00 0.00 0.00 81 1009.1
20260506190505 87 173 3.0 11.0 0.00 0.00 0.00 82 1009.1
20260506190008 87 139 4.0 11.0 0.00 0.00 0.00 81 1009.1
20260506185506 87 178 5.0 11.0 0.00 0.00 0.00 83 1009.2
20260506185011 86 178 3.0 12.0 0.00 0.00 0.00 84 1009.3
20260506184525 86 139 2.0 12.0 0.00 0.00 0.00 83 1009.3
20260506184009 85 202 3.0 7.0 0.00 0.00 0.00 82 1009.4
20260506183511 86 161 2.0 10.0 0.00 0.00 0.00 82 1009.4
20260506183025 86 178 2.0 10.0 0.00 0.00 0.00 82 1009.4
20260506182503 86 161 2.0 8.0 0.00 0.00 0.00 83 1009.5
20260506182005 86 153 1.0 8.0 0.00 0.00 0.00 83 1009.6
20260506181514 86 159 4.0 8.0 0.00 0.00 0.00 84 1009.8
20260506181007 85 170 2.0 5.0 0.00 0.00 0.00 84 1009.8
20260506180507 85 196 2.0 7.0 0.00 0.00 0.00 85 1010.0
20260506180022 85 242 2.0 7.0 0.00 0.00 0.00 84 1010.1
20260506175508 85 51 2.0 5.0 0.00 0.00 0.00 85 1010.2
20260506175010 84 124 1.0 8.0 0.00 0.00 0.00 85 1010.4
20260506174509 84 247 1.0 8.0 0.00 0.00 0.00 85 1010.4
20260506174010 84 157 1.0 5.0 0.00 0.00 0.00 86 1010.5
20260506173505 84 247 2.0 5.0 0.00 0.00 0.00 86 1010.6
20260506173018 83 137 1.0 6.0 0.00 0.00 0.00 86 1010.8
20260506172507 83 161 2.0 6.0 0.00 0.00 0.00 86 1010.7
20260506172008 83 153 2.0 7.0 0.00 0.00 0.00 86 1010.8
20260506171525 83 190 1.0 7.0 0.00 0.00 0.00 85 1010.7
20260506171009 83 157 1.0 6.0 0.00 0.00 0.00 86 1010.9
20260506170507 83 193 1.0 6.0 0.00 0.00 0.00 86 1010.8
20260506170011 83 168 3.0 9.0 0.00 0.00 0.00 86 1010.9
20260506165510 83 165 2.0 9.0 0.00 0.00 0.00 87 1010.8
20260506165013 83 144 4.0 8.0 0.00 0.00 0.00 88 1010.9
20260506164524 82 148 1.0 6.0 0.00 0.00 0.00 88 1010.8
20260506164011 82 178 2.0 7.0 0.00 0.00 0.00 88 1010.7
20260506163510 81 146 3.0 10.0 0.00 0.00 0.00 88 1010.7
20260506163027 81 175 4.0 10.0 0.00 0.00 0.00 87 1010.8
20260506162507 81 155 3.0 12.0 0.00 0.00 0.00 87 1010.6
20260506162010 81 193 3.0 12.0 0.00 0.00 0.00 87 1010.6
20260506161516 81 199 5.0 9.0 0.00 0.00 0.00 87 1010.4
20260506161011 81 198 2.0 9.0 0.00 0.00 0.00 87 1010.4
20260506160507 81 157 3.0 9.0 0.00 0.00 0.00 87 1010.4
20260506160021 81 171 3.0 9.0 0.00 0.00 0.00 87 1010.3
20260506155508 81 171 3.0 7.0 0.00 0.00 0.00 87 1010.3
20260506155009 81 165 2.0 9.0 0.00 0.00 0.00 87 1010.4
20260506154530 81 200 3.0 9.0 0.00 0.00 0.00 88 1010.3
20260506154006 81 163 3.0 10.0 0.00 0.00 0.00 87 1010.3
20260506153510 81 238 3.0 10.0 0.00 0.00 0.00 87 1010.4
20260506153016 81 160 2.0 10.0 0.00 0.00 0.00 88 1010.3
20260506152507 80 205 3.0 6.0 0.00 0.00 0.00 89 1010.2
20260506152011 80 191 1.0 6.0 0.00 0.00 0.00 89 1010.0
20260506151526 80 170 1.0 7.0 0.00 0.00 0.00 89 1010.0
20260506151012 80 148 1.0 7.0 0.00 0.00 0.00 89 1009.8
20260506150511 80 178 2.0 8.0 0.00 0.00 0.00 89 1009.8
20260506150014 79 171 3.0 8.0 0.00 0.00 0.00 90 1009.9
20260506145512 79 146 3.0 7.0 0.00 0.00 0.00 90 1009.8
20260506145010 79 157 2.0 6.0 0.00 0.00 0.00 91 1009.7
20260506144536 79 9 1.0 8.0 0.00 0.00 0.00 91 1009.7
20260506144007 79 168 3.0 9.0 0.00 0.00 0.00 91 1009.6
20260506143510 79 146 2.0 10.0 0.00 0.00 0.00 92 1009.4
20260506143028 79 166 3.0 10.0 0.00 0.00 0.00 92 1009.2
20260506142514 78 187 3.0 11.0 0.00 0.00 0.00 93 1009.2
20260506142008 78 196 3.0 11.0 0.00 0.00 0.00 93 1009.2
20260506141520 78 225 3.0 10.0 0.00 0.00 0.00 94 1009.4
20260506141014 78 165 2.0 7.0 0.00 0.00 0.00 94 1009.4
20260506140508 77 142 2.0 9.0 0.00 0.00 0.00 94 1009.4
20260506140036 77 164 4.0 9.0 0.00 0.00 0.00 94 1009.5
20260506135509 77 137 3.0 8.0 0.00 0.00 0.00 94 1009.5
20260506135014 77 165 4.0 8.0 0.00 0.00 0.00 94 1009.5
20260506134533 77 175 3.0 7.0 0.00 0.00 0.00 95 1009.6
20260506134006 76 200 2.0 6.0 0.00 0.00 0.00 95 1009.6
20260506133509 76 143 1.0 7.0 0.00 0.00 0.00 95 1009.5
20260506133023 76 205 2.0 7.0 0.00 0.00 0.00 95 1009.6
20260506132514 76 143 2.0 7.0 0.00 0.00 0.00 95 1009.6
20260506132012 76 126 1.0 5.0 0.00 0.00 0.00 95 1009.7
20260506131533 76 132 2.0 7.0 0.00 0.00 0.00 95 1009.7
20260506131012 75 178 1.0 7.0 0.00 0.00 0.00 95 1009.7
20260506130510 75 175 2.0 7.0 0.00 0.00 0.00 95 1009.7
20260506130018 75 214 2.0 6.0 0.00 0.00 0.00 95 1009.7
20260506125508 75 170 2.0 6.0 0.00 0.00 0.00 95 1009.8
20260506125010 75 153 2.0 6.0 0.00 0.00 0.00 95 1009.7
20260506124527 75 140 2.0 6.0 0.00 0.00 0.00 95 1009.6
20260506124010 75 221 1.0 4.0 0.00 0.00 0.00 95 1009.6
20260506123503 75 178 1.0 5.0 0.00 0.00 0.00 95 1009.6
20260506123015 75 148 1.0 5.0 0.00 0.00 0.00 95 1009.7
20260506122506 75 93 1.0 5.0 0.00 0.00 0.00 95 1009.5
20260506122007 74 137 0.0 5.0 0.00 0.00 0.00 95 1009.5
20260506121521 74 178 1.0 4.0 0.00 0.00 0.00 95 1009.4
20260506121006 74 193 1.0 4.0 0.00 0.00 0.00 95 1009.4
20260506120507 74 171 1.0 4.0 0.00 0.00 0.00 94 1009.4
20260506120032 74 192 1.0 4.0 0.00 0.00 0.00 94 1009.3
20260506115509 74 221 1.0 3.0 0.00 0.00 0.00 94 1009.3
20260506115003 74 153 1.0 7.0 0.00 0.00 0.00 94 1009.2
20260506114519 74 165 1.0 7.0 0.00 0.00 0.00 94 1009.2
20260506114012 74 161 1.0 5.0 0.00 0.00 0.00 94 1009.2
20260506113507 74 221 1.0 5.0 0.00 0.00 0.00 94 1009.0
20260506113030 74 196 2.0 7.0 0.00 0.00 0.00 94 1009.0
20260506112510 74 221 2.0 7.0 0.00 0.00 0.00 94 1009.0
20260506112009 74 178 3.0 7.0 0.00 0.00 0.00 94 1008.9
20260506111507 74 169 2.0 5.0 0.00 0.00 0.00 94 1008.8
20260506111004 74 168 1.0 5.0 0.00 0.00 0.00 94 1008.7
20260506110511 74 153 1.0 5.0 0.00 0.00 0.00 94 1008.7
20260506110019 74 148 1.0 5.0 0.00 0.00 0.00 94 1008.7
20260506105507 74 190 1.0 5.0 0.00 0.00 0.00 94 1008.6
20260506105008 74 51 1.0 5.0 0.00 0.00 0.00 94 1008.6
20260506104528 74 186 2.0 5.0 0.00 0.00 0.00 94 1008.5
20260506104009 74 196 2.0 5.0 0.00 0.00 0.00 94 1008.5
20260506103503 74 178 2.0 5.0 0.00 0.00 0.00 93 1008.6
20260506103010 74 170 1.0 5.0 0.00 0.00 0.00 93 1008.6
20260506102507 74 148 1.0 5.0 0.00 0.00 0.00 93 1008.6
20260506102007 74 360 2.0 6.0 0.00 0.00 0.00 93 1008.6
20260506101524 74 178 2.0 6.0 0.00 0.00 0.00 93 1008.6
20260506101012 74 190 2.0 6.0 0.00 0.00 0.00 93 1008.5
20260506100514 74 169 2.0 6.0 0.00 0.00 0.00 93 1008.4
20260506100028 74 221 2.0 7.0 0.00 0.00 0.00 93 1008.4
20260506095504 74 159 3.0 7.0 0.00 0.00 0.00 93 1008.4
20260506095007 75 196 3.0 7.0 0.00 0.00 0.00 93 1008.3
20260506094515 75 178 3.0 6.0 0.00 0.00 0.00 93 1008.2
20260506094008 75 146 2.0 6.0 0.00 0.00 0.00 93 1008.3
20260506093511 75 178 3.0 6.0 0.00 0.00 0.00 93 1008.2
20260506093031 75 171 3.0 8.0 0.00 0.00 0.00 93 1008.2
20260506092509 75 175 4.0 9.0 0.00 0.00 0.00 92 1008.2
20260506092014 75 164 4.0 12.0 0.00 0.00 0.00 92 1008.3
20260506091528 75 155 4.0 12.0 0.00 0.00 0.00 93 1008.2
20260506091007 75 182 5.0 11.0 0.00 0.00 0.00 92 1008.2
20260506090513 75 161 3.0 11.0 0.00 0.00 0.00 92 1008.3
20260506090018 75 155 4.0 11.0 0.00 0.00 0.00 92 1008.4
20260506085513 76 171 4.0 7.0 0.00 0.00 0.00 92 1008.4
20260506085006 76 182 3.0 8.0 0.00 0.00 0.00 92 1008.4
20260506084532 76 211 3.0 9.0 0.00 0.00 0.00 92 1008.4
20260506084008 76 182 5.0 9.0 0.00 0.00 0.00 92 1008.3
20260506083508 76 150 3.0 9.0 0.00 0.00 0.00 92 1008.4
20260506083032 76 187 2.0 10.0 0.00 0.00 0.00 92 1008.6
20260506082511 76 193 4.0 10.0 0.00 0.00 0.00 92 1008.5
20260506082007 76 159 3.0 11.0 0.00 0.00 0.00 92 1008.5
20260506081525 76 192 2.0 11.0 0.00 0.00 0.00 92 1008.6
20260506081011 76 167 4.0 11.0 0.00 0.00 0.00 92 1008.6
20260506080509 76 171 3.0 7.0 0.00 0.00 0.00 92 1008.5
20260506073507 76 188 4.0 12.0 0.00 0.00 0.00 92 1008.9
20260506073024 76 166 4.0 9.0 0.00 0.00 0.00 92 1008.8
20260506072509 76 165 4.0 10.0 0.00 0.00 0.00 92 1008.9
20260506072016 76 183 2.0 10.0 0.00 0.00 0.00 92 1008.9
20260506071527 76 194 2.0 9.0 0.00 0.00 0.00 92 1008.9
20260506071004 76 157 4.0 9.0 0.00 0.00 0.00 92 1008.9
20260506070510 76 194 3.0 7.0 0.00 0.00 0.00 92 1009.1
20260506062510 76 265 3.0 7.0 0.00 0.00 0.00 92 1009.3
20260506062013 76 173 3.0 6.0 0.00 0.00 0.00 92 1009.4
20260506061523 76 254 2.0 9.0 0.00 0.00 0.00 92 1009.5
20260506061010 76 168 2.0 9.0 0.00 0.00 0.00 92 1009.5
20260506060509 76 142 4.0 8.0 0.00 0.00 0.00 92 1009.5
20260506051008 76 163 2.0 9.0 0.00 0.00 0.00 91 1009.3
20260506050510 76 170 3.0 9.0 0.00 0.00 0.00 91 1009.3
20260506045010 76 238 2.0 9.0 0.00 0.00 0.00 91 1009.3
20260506044537 76 192 2.0 9.0 0.00 0.00 0.00 91 1009.3
20260506044008 76 159 3.0 9.0 0.00 0.00 0.00 91 1009.3
20260506043513 76 173 2.0 9.0 0.00 0.00 0.00 91 1009.4
20260506043014 77 169 2.0 9.0 0.00 0.00 0.00 90 1009.3
20260506042512 77 164 2.0 8.0 0.00 0.00 0.00 90 1009.3
20260506042011 77 188 3.0 7.0 0.00 0.00 0.00 90 1009.2
20260506041522 77 171 1.0 8.0 0.00 0.00 0.00 90 1009.2
20260506041013 77 211 4.0 9.0 0.00 0.00 0.00 90 1009.1
20260506040514 77 207 4.0 9.0 0.00 0.00 0.00 89 1009.1
20260506040028 77 143 5.0 11.0 0.00 0.00 0.00 89 1009.1
20260506035510 77 168 5.0 11.0 0.00 0.00 0.00 89 1009.2
20260506035007 77 182 3.0 8.0 0.00 0.00 0.00 89 1009.2
20260506034520 77 148 2.0 11.0 0.00 0.00 0.00 89 1009.1
20260506034007 77 173 3.0 11.0 0.00 0.00 0.00 89 1008.9
20260506033514 77 153 4.0 11.0 0.00 0.00 0.00 89 1008.8
20260506033027 77 202 4.0 11.0 0.00 0.00 0.00 89 1008.7
20260506032510 77 218 2.0 11.0 0.00 0.00 0.00 89 1008.6
20260506032012 77 161 3.0 11.0 0.00 0.00 0.00 89 1008.5
20260506031518 77 187 5.0 12.0 0.00 0.00 0.00 89 1008.5
20260506031008 77 198 4.0 12.0 0.00 0.00 0.00 89 1008.4
20260506030508 77 93 3.0 11.0 0.00 0.00 0.00 89 1008.5
20260506030021 77 178 4.0 11.0 0.00 0.00 0.00 88 1008.6
20260506025511 77 169 4.0 13.0 0.00 0.00 0.00 88 1008.6
20260506025010 77 163 6.0 14.0 0.00 0.00 0.00 88 1008.5
20260506024532 78 213 6.0 14.0 0.00 0.00 0.00 88 1008.4
20260506024006 78 189 6.0 14.0 0.00 0.00 0.00 88 1008.3
20260506023510 78 205 4.0 9.0 0.00 0.00 0.00 88 1008.2
20260506023014 78 187 4.0 11.0 0.00 0.00 0.00 88 1008.2
20260506022513 78 189 5.0 11.0 0.00 0.00 0.00 88 1008.1
20260506022011 78 150 3.0 9.0 0.00 0.00 0.00 88 1008.0
20260506021525 78 186 4.0 10.0 0.00 0.00 0.00 88 1008.0
20260506021016 78 173 4.0 11.0 0.00 0.00 0.00 88 1007.9
20260506020511 78 171 5.0 11.0 0.00 0.00 0.00 87 1007.9
20260506020014 78 178 2.0 7.0 0.00 0.00 0.00 87 1007.9
20260506015504 78 184 3.0 10.0 0.00 0.00 0.00 87 1007.8
20260506015006 78 309 4.0 10.0 0.00 0.00 0.00 87 1007.7
20260506014519 78 178 4.0 9.0 0.00 0.00 0.00 87 1007.6
20260506014007 79 202 4.0 11.0 0.00 0.00 0.00 87 1007.6
20260506013510 79 187 4.0 12.0 0.00 0.00 0.00 87 1007.6
20260506013026 79 171 7.0 12.0 0.00 0.00 0.00 86 1007.5
20260506012511 79 169 4.0 11.0 0.00 0.00 0.00 86 1007.3
20260506012008 79 175 4.0 11.0 0.00 0.00 0.00 86 1007.2
20260506011517 79 195 4.0 10.0 0.00 0.00 0.00 86 1007.1
20260506011009 79 163 4.0 10.0 0.00 0.00 0.00 86 1007.0
20260506010518 79 202 5.0 9.0 0.00 0.00 0.00 85 1007.0
20260506010045 79 67 4.0 10.0 0.00 0.00 0.00 85 1007.0
20260506005509 79 207 4.0 10.0 0.00 0.00 0.00 85 1007.0
20260506005010 79 178 3.0 11.0 0.00 0.00 0.00 85 1007.0
20260506004527 80 221 4.0 11.0 0.00 0.00 0.00 84 1007.0
20260506004006 80 190 4.0 16.0 0.00 0.00 0.00 84 1006.9
20260506003510 80 153 6.0 16.0 0.00 0.00 0.00 84 1006.9
20260506003017 80 207 5.0 15.0 0.00 0.00 0.00 84 1006.7
20260506002508 80 34 6.0 15.0 0.00 0.00 0.00 84 1006.7
20260506002010 80 175 8.0 14.0 0.00 0.00 0.00 84 1006.7
20260506001524 80 155 6.0 14.0 0.00 0.00 0.00 84 1006.7
20260506001009 80 175 5.0 14.0 0.00 0.00 0.00 83 1006.8
20260506000512 81 175 5.0 13.0 0.00 0.00 0.00 83 1006.8
20260506000014 81 188 6.0 13.0 0.00 0.00 0.00 84 1006.8
20260505235504 81 166 6.0 13.0 0.00 0.00 0.00 83 1006.8
20260505235011 81 185 6.0 13.0 0.00 0.00 0.00 83 1006.6
20260505234519 81 152 5.0 13.0 0.00 0.00 0.00 83 1006.6
20260505234009 81 315 6.0 17.0 0.00 0.00 0.00 83 1006.6
20260505233510 81 207 7.0 17.0 0.00 0.00 0.00 83 1006.5
20260505233028 82 175 4.0 13.0 0.00 0.00 0.00 83 1006.6
20260505232517 81 190 5.0 15.0 0.00 0.00 0.00 83 1006.7